Flag for Sudan Weather past 2 weeks in Khartoum, Sudan

Now
90 °F

Sunny.


Feels Like: 86 °F
Forecast: 67 / 90 °F
Wind: 14 mph from North

Location: Khartoum Airport

Current Time: Dec 29, 2014 at 6:17:09 PM

Latest Report: Dec 29, 2014 at 6:00 PM


Visibility: 10 mi

Pressure: 29.89 "Hg

Humidity: 21%

Dew point: 45 °F

Location of KhartoumLocation

Historic Weather in Khartoum — Graph

°F

Khartoum temperature yesterday

Maximum temperature yesterday: 88 °F (at 4:00 PM)
Minimum temperature yesterday: 66 °F (at 6:00 AM)
Average temperature yesterday: 77 °F

Past Weeks' High & Low Weather Summary

 TemperatureHumidityPressure
High93 °F (Dec 19, 3:00 PM)46% (Dec 26, 7:00 AM)30.09 "Hg (Dec 26, 7:00 AM)
Low63 °F (Dec 23, 8:00 AM)11% (Dec 15, 8:00 PM)29.86 "Hg (Dec 22, 10:30 AM)
Average77 °F27%29.98 "Hg
* Reported Dec 14 5:00 PM — Dec 29 5:00 PM, Khartoum, Weather by CustomWeather, © 2014

Note: Actual official high and low records may vary slightly from our data, if they occured in-between our weather recording intervals... More about our weather records

Advertising

Khartoum weather history for previous 24 hours

 ConditionsComfort  
Time TempWeatherWind HumidityBarometerVisibility
5:00 PM
Dec 29
90 °FSunny.15 mph21%29.89 "Hg10 mi
4:30 PMN/ASunny.14 mphN/A29.89 "Hg10 mi
4:00 PM91 °FSunny.13 mph23%29.89 "Hg10 mi
3:30 PMN/ASunny.14 mphN/A29.89 "Hg10 mi
3:00 PM90 °FSunny.16 mph26%29.92 "Hg10 mi
2:30 PMN/ASunny.16 mphN/A29.92 "Hg10 mi
2:00 PM88 °FSunny.14 mph24%29.92 "Hg10 mi
1:30 PMN/ASunny.14 mphN/A29.95 "Hg10 mi
1:00 PM84 °FSunny.16 mph31%29.98 "Hg10 mi
12:30 PMN/ASunny.13 mphN/A30.01 "Hg10 mi
12:00 PM79 °FSunny.14 mph32%30.01 "Hg10 mi
11:30 AMN/ASunny.13 mphN/A30.04 "Hg10 mi
11:00 AM75 °FSunny.15 mph29%30.04 "Hg10 mi
10:30 AMN/ASunny.13 mphN/A30.04 "Hg10 mi
10:00 AM72 °FSunny.13 mph29%30.04 "Hg10 mi
9:30 AMN/ASunny.16 mphN/A30.04 "Hg10 mi
9:00 AM66 °FSunny.10 mph28%30.04 "Hg10 mi
8:30 AMN/ASunny.8 mphN/A30.01 "Hg10 mi
8:00 AM63 °FSunny.8 mph32%30.01 "Hg10 mi
7:30 AMN/ASunny.10 mphN/A30.01 "Hg10 mi
7:00 AM63 °FClear.9 mph32%30.01 "Hg10 mi
6:30 AMN/AClear.12 mphN/A30.01 "Hg10 mi
5:30 AMN/AClear.8 mphN/A29.98 "Hg10 mi
5:00 AM64 °FClear.10 mph30%29.98 "Hg10 mi
4:30 AMN/AClear.9 mphN/A29.98 "Hg10 mi
4:00 AM66 °FClear.9 mph24%29.98 "Hg10 mi
3:30 AMN/AClear.9 mphN/A29.98 "Hg10 mi
3:00 AM70 °FClear.14 mph17%29.98 "Hg10 mi
2:30 AMN/AClear.15 mphN/A29.98 "Hg10 mi
2:00 AM70 °FClear.15 mph21%30.01 "Hg10 mi
1:30 AMN/AClear.17 mphN/A30.01 "Hg10 mi
1:00 AM72 °FClear.16 mph25%30.01 "Hg10 mi
12:30 AMN/AClear.16 mphN/A30.01 "Hg10 mi
12:00 AM73 °FClear.14 mph20%30.04 "Hg10 mi
11:30 PM
Dec 28
N/AClear.17 mphN/A30.04 "Hg10 mi
11:00 PM75 °FClear.16 mph16%30.04 "Hg10 mi
10:30 PMN/AClear.13 mphN/A30.04 "Hg10 mi
10:00 PM77 °FClear.15 mph18%30.04 "Hg10 mi
9:30 PMN/AClear.13 mphN/A30.04 "Hg10 mi
9:00 PM79 °FClear.6 mph15%30.04 "Hg10 mi
8:30 PMN/AClear.6 mphN/A30.04 "Hg10 mi
8:00 PM81 °FClear.8 mph12%30.01 "Hg10 mi
7:30 PMN/AClear.9 mphN/A30.01 "Hg10 mi
7:00 PM84 °FClear.14 mph11%30.01 "Hg10 mi
6:30 PMN/AClear.9 mphN/A30.01 "Hg10 mi
6:00 PM88 °FSunny.13 mph11%29.98 "Hg10 mi
Weather by CustomWeather, © 2014

See weather overviewHow to use our weather pages